Cedar, IA

2:38 AM CST on January 22, 2017 (GMT -0600)
Oskaloosa Municipal

Weather History for KOOA - February, 2014

Change the Weather History Date:

Tuesday, February 18, 2014

  Actual Average (KOTM) Record (KOTM)
Temperature  
Mean Temperature 36 °F -  
Max Temperature 47 °F 38 °F 66 °F (1930)
Min Temperature 24 °F 22 °F -14 °F (1936)
Degree Days  
Heating Degree Days 30    
Moisture  
Dew Point 28 °F    
Average Humidity 70    
Maximum Humidity 87    
Minimum Humidity 48    
Precipitation  
Precipitation 0.00 in - - ()
Sea Level Pressure  
Sea Level Pressure 29.74 in    
Wind  
Wind Speed 12 mph (SW)    
Max Wind Speed 24 mph    
Max Gust Speed 32 mph    
Visibility 10 miles    
Events      
Averages and records for this station are not official NWS values.
T = Trace of Precipitation, MM = Missing Value Source: NWS Daily Summary

Daily Weather History Graph

Daily Weather History Graph

Search for Another Location

Airport or City:

Trip Planner

Search our weather history database for the weather conditions in past years. The results will help you decide how hot, cold, wet, or windy it might be!

Date:

Astronomy

Feb. 18, 2014 Rise Set
Actual Time 7:00 AM CST 5:47 PM CST
Civil Twilight 6:32 AM CST 6:15 PM CST
Nautical Twilight 6:00 AM CST 6:48 PM CST
Astronomical Twilight 5:28 AM CST 7:20 PM CST
Moon 9:44 PM CST (2/18) 8:30 AM CST (2/18)
Length of Visible Light 11h 43m
Length of Day
10h 47m
Waning Gibbous, 87% of the Moon is Illuminated
Feb 18
Waning Gibbous
Feb 22
Last Quarter
Mar 1
New
Mar 8
First Quarter
Mar 16
Full

Hourly Weather History & Observations

Time (CST) Temp. Windchill Dew Point Humidity Pressure Visibility Wind Dir Wind Speed Gust Speed Precip Events Conditions
12:15 AM 26.8 °F 18.5 °F 21.7 °F 81% 29.91 in 10.0 mi SW 8.1 mph - N/A   Clear
12:35 AM 27.5 °F 19.3 °F 21.9 °F 80% 29.92 in 10.0 mi SW 8.1 mph - N/A   Clear
12:55 AM 27.9 °F 20.6 °F 22.6 °F 81% 29.91 in 10.0 mi SW 6.9 mph - N/A   Clear
1:15 AM 29.1 °F 23.0 °F 23.0 °F 78% 29.90 in 10.0 mi South 5.8 mph - N/A   Clear
1:35 AM 27.5 °F 18.6 °F 22.6 °F 82% 29.89 in 10.0 mi SSW 9.2 mph - N/A   Clear
1:55 AM 26.6 °F 18.2 °F 21.0 °F 79% 29.89 in 10.0 mi SSW 8.1 mph - N/A   Clear
2:15 AM 27.7 °F 19.6 °F 21.9 °F 79% 29.88 in 10.0 mi South 8.1 mph - N/A   Clear
2:35 AM 26.1 °F 16.2 °F 21.0 °F 81% 29.87 in 10.0 mi South 10.4 mph - N/A   Clear
2:55 AM 24.8 °F 14.6 °F 19.9 °F 82% 29.86 in 10.0 mi South 10.4 mph - N/A   Clear
3:15 AM 24.8 °F 14.6 °F 20.1 °F 82% 29.85 in 10.0 mi South 10.4 mph - N/A   Clear
3:35 AM 24.6 °F 13.8 °F 20.3 °F 84% 29.84 in 10.0 mi South 11.5 mph - N/A   Clear
3:55 AM 26.1 °F 15.6 °F 21.0 °F 81% 29.83 in 10.0 mi SSE 11.5 mph - N/A   Clear
4:15 AM 25.7 °F 14.6 °F 21.0 °F 82% 29.82 in 10.0 mi South 12.7 mph - N/A   Clear
4:35 AM 27.5 °F 16.3 °F 21.9 °F 80% 29.81 in 10.0 mi South 13.8 mph - N/A   Clear
4:55 AM 27.3 °F 15.6 °F 21.9 °F 80% 29.80 in 10.0 mi SSE 15.0 mph - N/A   Clear
5:15 AM 27.3 °F 15.6 °F 21.7 °F 80% 29.78 in 10.0 mi South 15.0 mph - N/A   Clear
5:35 AM 27.9 °F 17.8 °F 21.9 °F 78% 29.78 in 10.0 mi South 11.5 mph - N/A   Clear
5:55 AM 28.8 °F 19.5 °F 22.1 °F 76% 29.78 in 10.0 mi South 10.4 mph - N/A   Clear
6:15 AM 28.8 °F 19.5 °F 22.1 °F 76% 29.76 in 10.0 mi SSE 10.4 mph - N/A   Clear
6:35 AM 29.3 °F 20.2 °F 22.1 °F 75% 29.75 in 10.0 mi SSE 10.4 mph - N/A   Clear
6:55 AM 28.4 °F 19.1 °F 22.1 °F 77% 29.75 in 10.0 mi SSE 10.4 mph - N/A   Clear
7:15 AM 27.3 °F 17.7 °F 21.2 °F 78% 29.74 in 10.0 mi SSE 10.4 mph - N/A   Clear
7:35 AM 28.2 °F 22.0 °F 22.1 °F 78% 29.74 in 10.0 mi SSE 5.8 mph - N/A   Clear
7:55 AM 32.5 °F 21.5 °F 24.8 °F 73% 29.73 in 10.0 mi SSW 17.3 mph 21.9 mph N/A   Clear
8:15 AM 41.0 °F 31.6 °F 27.1 °F 58% 29.73 in 10.0 mi SW 20.7 mph 26.5 mph N/A   Clear
8:35 AM 42.6 °F 33.5 °F 27.7 °F 56% 29.72 in 10.0 mi SSW 21.9 mph 28.8 mph N/A   Clear
8:55 AM 43.7 °F 34.5 °F 27.9 °F 54% 29.71 in 10.0 mi SSW 24.2 mph 28.8 mph N/A   Clear
9:15 AM 43.7 °F 34.7 °F 28.0 °F 54% 29.70 in 10.0 mi SSW 23.0 mph - N/A   Clear
9:35 AM 44.2 °F 36.2 °F 27.9 °F 53% 29.69 in 10.0 mi SW 19.6 mph 27.6 mph N/A   Clear
9:55 AM 44.8 °F 36.2 °F 27.7 °F 51% 29.68 in 10.0 mi SW 23.0 mph - N/A   Clear
10:15 AM 45.9 °F 37.6 °F 27.3 °F 48% 29.67 in 10.0 mi SSW 23.0 mph 29.9 mph N/A   Clear
10:35 AM 45.1 °F 36.4 °F 28.0 °F 51% 29.66 in 10.0 mi SW 24.2 mph 31.1 mph N/A   Clear
10:55 AM 44.8 °F 35.9 °F 28.0 °F 52% 29.65 in 10.0 mi SW 24.2 mph 32.2 mph N/A   Clear
11:15 AM 45.5 °F 37.3 °F 28.2 °F 51% 29.64 in 10.0 mi SW 21.9 mph - N/A   Clear
11:35 AM 45.0 °F 36.2 °F 29.1 °F 54% 29.64 in 10.0 mi SW 24.2 mph 29.9 mph N/A   Clear
11:55 AM 44.6 °F 36.1 °F 29.3 °F 55% 29.63 in 10.0 mi SW 21.9 mph - N/A   Clear
12:15 PM 44.8 °F 36.6 °F 29.7 °F 55% 29.63 in 10.0 mi SW 20.7 mph 26.5 mph N/A   Clear
12:35 PM 45.1 °F 38.1 °F 30.0 °F 55% 29.64 in 10.0 mi SW 16.1 mph - N/A   Clear
12:55 PM 45.7 °F 37.8 °F 30.0 °F 54% 29.64 in 10.0 mi SW 20.7 mph - N/A   Clear
1:15 PM 44.8 °F 37.7 °F 31.1 °F 59% 29.63 in 10.0 mi SW 16.1 mph - N/A   Clear
1:35 PM 44.6 °F 38.1 °F 32.0 °F 61% 29.62 in 10.0 mi SW 13.8 mph - N/A   Clear
1:55 PM 45.7 °F 38.8 °F 31.8 °F 58% 29.61 in 10.0 mi SW 16.1 mph - N/A   Clear
2:15 PM 45.5 °F 39.2 °F 32.2 °F 60% 29.61 in 10.0 mi SW 13.8 mph - N/A   Clear
2:35 PM 45.5 °F 39.9 °F 32.9 °F 61% 29.62 in 10.0 mi SW 11.5 mph - N/A   Clear
2:55 PM 45.1 °F 38.8 °F 33.3 °F 63% 29.63 in 10.0 mi WSW 13.8 mph - N/A   Clear
3:15 PM 46.9 °F - 32.0 °F 56% 29.63 in 10.0 mi WSW 18.4 mph - N/A   Clear
3:35 PM 47.1 °F - 32.2 °F 56% 29.62 in 10.0 mi WSW 16.1 mph - N/A   Clear
3:55 PM 46.8 °F - 32.9 °F 59% 29.64 in 10.0 mi WSW 11.5 mph - N/A   Clear
4:15 PM 45.5 °F 40.8 °F 33.3 °F 62% 29.63 in 10.0 mi WSW 9.2 mph - N/A   Clear
4:35 PM 43.7 °F 38.1 °F 32.9 °F 66% 29.65 in 10.0 mi WSW 10.4 mph - N/A   Scattered Clouds
4:55 PM 42.3 °F 37.3 °F 32.9 °F 69% 29.64 in 10.0 mi WSW 8.1 mph - N/A   Scattered Clouds
5:15 PM 41.4 °F 35.7 °F 32.7 °F 71% 29.66 in 10.0 mi WSW 9.2 mph - N/A   Clear
5:35 PM 43.0 °F 38.2 °F 32.4 °F 66% 29.66 in 10.0 mi West 8.1 mph - N/A   Clear
5:55 PM 40.5 °F 35.8 °F 32.2 °F 72% 29.67 in 10.0 mi West 6.9 mph - N/A   Clear
6:15 PM 39.2 °F 33.6 °F 32.0 °F 75% 29.69 in 10.0 mi WSW 8.1 mph - N/A   Clear
6:35 PM 40.1 °F 34.7 °F 32.0 °F 73% 29.69 in 10.0 mi West 8.1 mph - N/A   Clear
6:55 PM 38.5 °F 31.6 °F 32.0 °F 78% 29.70 in 10.0 mi West 10.4 mph - N/A   Clear
7:15 PM 38.7 °F 33.6 °F 32.0 °F 77% 29.70 in 10.0 mi West 6.9 mph - N/A   Clear
7:35 PM 37.2 °F 30.0 °F 31.6 °F 80% 29.71 in 10.0 mi West 10.4 mph - N/A   Clear
7:55 PM 37.9 °F 30.5 °F 32.0 °F 79% 29.72 in 10.0 mi WNW 11.5 mph - N/A   Clear
8:15 PM 40.5 °F 32.8 °F 33.3 °F 75% 29.75 in 10.0 mi NW 13.8 mph - N/A   Clear
8:35 PM 40.5 °F 30.9 °F 32.0 °F 72% 29.77 in 10.0 mi NW 20.7 mph - N/A   Clear
8:55 PM 39.2 °F 29.8 °F 31.5 °F 74% 29.78 in 10.0 mi NW 18.4 mph 24.2 mph N/A   Clear
9:15 PM 38.3 °F 29.7 °F 31.6 °F 77% 29.79 in 10.0 mi NNW 15.0 mph - N/A   Clear
9:35 PM 37.9 °F 30.0 °F 31.3 °F 77% 29.78 in 10.0 mi NNW 12.7 mph - N/A   Clear
9:55 PM 36.7 °F 29.9 °F 31.1 °F 80% 29.80 in 10.0 mi NW 9.2 mph - N/A   Clear
10:15 PM 35.8 °F 28.8 °F 31.1 °F 83% 29.80 in 10.0 mi NW 9.2 mph - N/A   Clear
10:35 PM 35.4 °F 27.8 °F 31.1 °F 84% 29.81 in 10.0 mi WNW 10.4 mph - N/A   Clear
10:55 PM 34.5 °F 26.7 °F 31.1 °F 87% 29.81 in 10.0 mi West 10.4 mph - N/A   Clear
11:55 PM 35.6 °F 27.5 °F 31.5 °F 85% 29.82 in 10.0 mi WNW 11.5 mph - N/A   Clear